Temperature
17 18 18 18 19 19 19 19 19 20 20 21 20 20 20 20 20 21 21 21 21 21 21 20 20 20 19 19 19 18 18 17 16 16 16 15 15 15 15 15 14 14 14 14
17 18 18 18 19 19 19 19 19 19 20 20 18 18 19 20 20 20 21 21 21 21 20 20 19 19 19 19 19 18 18 17 16 16 16 16 15 15 15 15 14 14 14 14
17 18 18 18 18 18 18 18 18 17 17 17 18 18 19 19 19 20 20 20 19 19 19 19 19 18 18 18 18 18 17 17 16 16 16 16 15 15 15 15 14 14 14 14
16 17 16 16 17 17 17 17 17 17 17 17 17 18 19 17 17 18 18 18 18 18 18 18 18 18 18 18 18 17 17 16 16 16 16 16 15 15 15 14 14 14 14 14
15 16 17 15 14 14 16 16 16 16 16 16 16 21 21 17 15 15 16 16 17 17 18 18 18 18 18 17 17 16 16 15 15 15 15 15 15 15 15 14 14 14 14 14
13 13 13 10 11 13 16 15 14 15 15 15 16 19 19 16 15 15 15 16 17 17 17 18 17 17 16 16 15 15 14 14 14 14 14 14 14 14 14 14 14 14 14 14
11 11 10 8 9 13 13 11 12 13 14 14 15 15 15 15 15 14 15 15 15 16 17 16 15 15 15 14 13 13 13 13 13 13 13 13 14 14 14 14 14 14 14 13
11 10 9 8 9 9 9 10 11 13 13 13 13 14 14 15 14 14 15 15 15 15 15 14 14 14 13 13 12 12 12 12 12 12 12 12 13 13 13 13 13 13 13 13
11 11 10 9 8 9 9 10 11 12 12 13 13 14 14 15 15 15 15 15 14 14 14 13 13 13 13 12 12 12 11 11 11 11 12 12 12 12 12 12 12 12 12 12
12 12 11 10 9 9 9 9 10 11 12 13 13 13 14 15 15 15 15 15 14 14 14 13 13 13 13 12 12 11 11 11 11 11 11 11 11 11 11 11 11 11 12 12
11 12 11 10 10 9 9 9 10 10 11 12 13 13 14 15 15 15 15 15 14 14 14 13 13 13 13 13 12 11 11 11 11 11 11 11 11 11 11 11 11 11 11 11
9 10 9 9 9 9 8 9 9 10 11 12 13 13 14 14 15 15 15 15 15 14 14 14 13 13 13 13 12 11 11 11 11 11 11 11 11 11 11 11 11 11 11 11
9 8 8 8 8 8 8 9 9 10 11 12 13 14 14 14 15 15 15 15 15 15 14 14 13 13 13 13 12 11 11 11 11 10 10 10 10 11 11 11 11 11 11 11
8 8 8 8 8 8 8 9 9 10 11 12 13 14 14 14 15 15 15 16 16 15 14 14 14 13 13 12 12 11 11 11 11 11 10 10 10 10 10 10 10 10 10 10
8 8 8 8 8 8 8 9 9 10 11 13 14 15 15 15 15 16 16 16 16 15 15 14 14 13 13 13 12 11 11 11 11 11 10 10 10 10 10 10 10 10 9 9
8 8 8 8 8 8 8 9 9 10 11 13 15 15 15 16 16 16 16 16 16 16 15 15 14 14 13 13 12 12 11 11 11 10 10 10 10 10 10 10 10 9 9 9
8 8 8 8 8 8 8 8 9 9 10 12 14 15 16 16 16 17 17 17 16 16 16 15 15 14 14 13 12 11 11 11 11 10 10 10 10 10 10 10 10 9 9 9
8 8 8 8 8 8 8 8 9 9 10 12 15 16 17 17 17 17 17 17 17 16 16 16 15 15 14 13 12 11 11 10 10 10 10 10 10 10 10 10 10 10 9 9
8 8 8 8 8 8 8 8 9 9 10 12 15 16 17 18 18 18 18 18 17 17 17 16 16 15 14 13 12 11 11 10 10 10 10 10 10 10 10 10 10 10 10 9
8 8 8 8 8 8 8 9 9 9 10 12 15 17 18 18 18 18 18 18 18 17 17 17 16 15 14 13 12 11 10 10 10 10 10 10 10 10 10 10 10 10 10 9
8 8 8 8 8 9 9 9 9 10 10 12 14 16 18 18 19 19 19 18 18 18 17 17 16 15 14 13 12 11 10 10 10 10 10 10 10 10 10 10 10 10 9 9
8 8 8 8 8 9 9 9 10 10 11 12 14 16 18 18 19 19 19 18 18 18 17 17 16 15 14 13 12 11 10 10 10 10 10 10 10 10 10 10 10 9 9 9
8 8 8 8 8 9 9 10 10 10 11 12 14 16 17 18 18 19 19 19 18 18 17 17 16 15 14 13 12 11 10 10 10 10 10 10 10 10 9 9 9 9 9 9
8 8 8 8 8 9 9 10 10 11 11 12 13 15 17 18 18 18 18 18 18 18 17 17 16 15 13 12 12 11 10 10 10 9 9 9 9 9 9 9 9 9 9 9
8 8 8 8 8 8 9 10 10 11 11 12 13 14 16 17 18 18 18 18 18 18 17 16 15 14 13 12 11 11 10 10 10 9 9 9 9 9 9 9 9 9 8 8
8 8 8 8 8 8 8 9 9 10 11 12 13 14 16 17 17 18 18 18 18 17 17 16 15 14 13 12 11 10 10 10 10 9 9 9 9 9 9 9 8 8 8 8
8 8 8 8 8 8 8 9 9 10 10 11 12 14 15 16 17 17 17 17 17 17 17 16 15 14 13 12 11 10 10 10 9 9 9 9 8 8 8 8 8 8 8 9
Wind_Speed
11 12 12 13 12 11 12 11 8 8 10 12 16 19 20 20 18 16 14 12 10 9 6 6 9 10 10 10 10 10 10 9 9 8 8 8 8 8 9 9 9 10 9 9
14 11 12 14 11 9 8 6 5 8 8 15 20 18 17 16 13 12 11 9 7 6 3 4 7 8 8 8 8 8 8 8 7 7 7 7 8 9 9 9 9 10 10 10
13 12 13 5 6 6 11 12 9 9 13 20 22 20 16 15 12 9 8 6 3 2 2 4 5 6 6 6 6 6 6 6 6 7 8 8 8 8 9 9 10 10 11 10
9 9 4 6 12 8 9 15 16 14 16 18 21 16 9 15 15 11 8 6 6 7 8 8 7 7 6 4 3 2 3 4 5 6 7 8 8 9 9 9 9 9 9 10
5 6 4 7 13 15 6 7 20 21 21 23 25 7 11 21 18 12 9 8 9 9 10 10 10 9 8 7 5 3 2 1 2 4 6 8 9 9 9 9 9 9 9 9
4 5 1 10 24 22 7 1 21 23 23 24 23 13 13 21 16 10 8 8 8 9 10 11 10 9 9 9 8 7 5 3 2 2 4 6 8 8 8 9 9 9 9 9
6 4 4 14 25 15 4 10 21 21 21 21 17 13 17 18 9 5 6 6 6 8 9 9 9 9 10 10 9 8 6 5 4 2 1 3 5 6 7 8 9 10 10 9
6 5 5 14 15 10 11 16 19 21 21 20 20 19 17 12 4 2 3 4 5 6 8 7 7 8 9 9 7 6 7 7 7 6 4 2 1 3 5 7 8 9 10 9
4 3 4 8 9 10 14 18 19 21 22 21 21 19 17 11 4 1 1 3 3 5 6 6 6 6 7 6 5 6 6 7 7 6 6 4 2 2 3 4 6 7 8 8
6 4 9 10 7 13 17 18 21 21 21 20 19 20 17 11 6 4 3 3 3 3 3 3 3 3 4 3 4 5 6 6 6 6 6 6 4 2 2 3 4 5 6 6
8 10 12 8 15 18 19 19 20 21 20 18 18 18 16 12 7 6 5 4 4 4 2 1 2 3 3 3 3 4 5 5 5 6 6 6 6 6 4 4 3 1 2 3
7 12 13 17 18 18 19 20 20 21 21 19 17 17 16 12 7 6 7 6 6 5 4 2 2 3 3 2 2 3 4 4 4 4 4 4 5 6 12 10 10 10 9 5
9 14 15 17 17 18 17 19 20 19 19 18 16 15 14 11 7 6 8 8 7 7 6 4 3 2 1 1 1 2 3 2 2 2 2 3 2 3 5 6 10 11 10 9
9 11 12 15 18 18 18 19 18 17 16 14 14 13 12 11 7 7 9 9 8 7 7 6 4 2 1 2 1 1 2 2 1 2 1 1 2 2 2 3 4 5 7 9
9 12 14 16 16 16 16 17 17 15 15 14 13 13 12 11 9 7 9 9 9 8 8 7 5 3 3 3 2 1 1 1 2 2 1 2 2 2 3 4 4 4 4 5
15 14 13 14 16 16 17 17 16 17 16 16 15 14 13 12 9 7 8 10 11 11 10 8 6 5 6 5 4 2 2 3 2 1 1 2 2 3 4 4 4 4 4 3
14 15 16 17 18 18 17 17 16 16 16 16 16 15 14 11 8 6 8 11 11 10 8 8 6 6 7 7 5 3 3 4 3 1 1 2 2 3 4 4 4 4 4 3
12 13 15 16 16 17 18 17 16 17 16 16 16 14 12 10 8 6 7 10 10 9 8 7 7 8 9 8 6 4 4 4 3 2 2 2 2 3 4 4 5 5 4 3
12 14 15 15 15 15 16 16 16 16 16 15 15 14 12 10 8 6 6 9 11 11 9 8 9 10 10 9 7 6 5 5 4 3 3 4 3 3 4 4 4 4 4 3
12 13 14 15 15 14 15 15 16 15 15 15 14 13 11 9 7 5 7 9 9 7 6 10 11 10 10 10 8 6 6 5 5 4 4 4 4 4 4 4 4 4 4 3
12 13 14 15 15 15 14 15 15 16 16 15 14 13 12 11 8 6 6 7 7 7 8 11 10 10 10 10 9 7 6 5 5 5 5 4 4 4 4 5 4 4 4 3
12 13 14 15 15 15 14 14 14 15 15 14 14 13 12 10 8 7 8 6 5 10 9 9 9 11 11 11 8 7 7 6 5 5 5 5 4 5 5 5 5 4 3 3
12 13 14 15 15 16 15 14 15 15 15 15 14 13 12 11 8 6 5 5 6 11 10 9 12 17 15 10 8 8 7 6 5 5 5 5 5 4 4 5 4 4 4 3
13 13 14 14 15 15 15 15 15 14 14 14 12 12 12 10 7 6 5 4 9 12 9 13 19 19 13 8 8 8 7 6 6 5 5 5 4 4 4 4 4 4 4 4
13 14 14 14 14 12 13 14 15 14 14 13 13 13 10 7 6 5 4 6 10 12 10 15 20 18 11 8 8 8 7 6 6 6 5 5 4 4 4 5 5 4 4 4
13 12 12 13 12 11 11 11 11 11 12 13 13 12 10 8 6 4 3 7 12 11 11 12 14 12 9 9 9 8 8 7 7 6 5 5 5 5 5 5 5 5 5 5
12 11 10 11 10 9 9 10 11 11 12 13 15 13 10 8 5 3 4 7 10 10 11 12 12 10 9 9 9 8 7 7 7 6 6 5 5 5 5 6 5 5 5 5
Wind_Direction
307 307 305 299 294 286 276 276 282 305 311 326 334 322 312 305 298 291 285 282 279 276 266 231 212 199 191 186 185 189 197 205 209 210 207 212 214 214 215 216 218 214 213 214
300 301 302 296 295 279 269 284 304 324 329 343 327 322 319 317 309 294 289 290 288 282 263 215 195 184 177 181 186 194 203 210 209 214 208 210 214 217 214 213 218 218 219 218
294 303 297 281 24 54 81 57 31 9 343 334 333 333 339 346 341 325 319 327 341 25 93 130 144 155 163 172 177 197 207 210 211 214 211 211 212 211 209 212 216 218 219 217
281 289 251 86 50 34 102 61 30 9 353 344 333 320 23 16 1 357 4 29 59 79 87 90 96 105 112 120 144 187 215 222 219 220 217 212 210 208 209 212 208 214 217 214
273 265 240 73 12 343 289 62 19 2 355 351 343 347 37 18 8 10 28 54 69 78 84 82 81 87 91 89 85 77 50 315 246 228 223 217 213 210 208 208 207 210 209 209
316 285 56 13 340 326 260 97 5 355 353 351 353 3 353 348 353 16 43 60 73 80 81 79 78 84 86 80 71 57 39 21 356 261 235 227 223 218 210 210 212 211 210 211
356 314 61 3 343 351 54 352 335 340 344 345 345 330 317 326 345 22 44 54 69 79 79 79 83 85 81 72 60 47 38 36 33 15 292 247 228 218 211 210 211 212 210 208
358 349 348 348 353 2 334 324 327 331 335 335 331 328 331 334 337 25 59 62 72 86 85 81 80 81 77 68 57 46 40 37 32 27 22 25 214 204 204 202 202 203 201 196
333 311 286 305 300 303 320 322 323 325 326 328 328 330 331 327 298 219 126 95 97 106 102 91 74 64 67 62 42 35 34 33 30 34 38 40 56 133 174 190 192 193 194 187
318 302 323 320 321 322 322 317 315 316 318 322 323 325 327 320 282 228 190 153 147 147 128 99 68 42 35 28 14 18 25 27 32 34 46 52 52 69 132 167 183 190 193 187
311 324 327 318 322 322 319 316 314 313 313 315 318 321 323 316 282 235 202 183 184 188 176 100 4 353 358 353 348 5 19 30 43 50 55 61 59 41 41 60 45 66 164 163
305 316 313 308 315 318 317 316 316 314 312 314 315 317 321 317 289 233 208 191 193 204 220 258 320 344 2 9 349 2 23 32 40 56 68 80 91 79 50 56 61 57 50 53
294 304 301 303 312 316 314 314 313 309 306 306 310 314 318 317 295 234 209 200 199 206 224 249 283 321 21 105 47 29 33 33 38 47 73 90 105 118 113 86 74 67 63 62
308 310 307 314 316 317 317 317 314 309 307 306 309 313 317 316 300 241 216 203 199 206 222 236 250 257 177 163 157 37 45 67 43 64 71 90 98 99 105 124 117 89 70 66
310 312 307 309 314 319 322 322 321 319 320 318 318 317 318 316 301 255 221 201 195 206 220 228 233 221 183 186 193 129 62 70 67 59 68 89 102 112 108 105 110 113 107 87
316 317 320 323 325 327 329 330 327 323 322 319 317 317 316 312 300 260 217 199 199 208 215 221 225 206 183 187 186 172 127 77 35 55 98 107 119 121 116 116 114 111 101 91
319 323 329 330 329 328 328 328 324 320 318 315 314 312 310 308 298 253 217 207 210 215 215 217 215 187 180 185 189 183 165 147 165 200 65 79 94 104 113 117 113 105 94 75
312 311 314 319 320 321 323 325 325 322 318 315 311 306 304 303 299 270 224 208 208 214 216 212 197 178 176 179 185 184 178 173 176 164 140 120 115 119 121 124 123 117 114 118
311 312 314 318 319 317 319 322 324 322 321 319 313 307 301 296 294 272 225 206 208 213 210 197 174 178 173 171 173 182 180 177 180 173 159 146 150 131 126 122 123 122 120 120
312 315 316 318 321 320 320 323 324 324 325 323 317 309 301 295 292 264 224 218 217 213 182 167 171 174 167 167 177 178 177 179 176 169 164 161 153 143 134 133 133 132 129 124
316 317 318 320 322 322 322 324 326 327 328 326 321 313 305 299 291 260 228 226 211 185 164 158 165 163 162 161 176 174 173 171 168 166 164 163 158 154 152 147 144 141 135 130
317 316 317 318 320 322 323 324 327 328 328 328 325 319 313 305 294 264 234 231 189 163 163 165 164 152 153 158 170 168 170 167 163 162 164 165 167 167 160 151 147 145 142 130
313 313 315 316 318 318 319 323 329 329 329 330 327 324 318 308 295 271 248 209 180 171 169 162 148 144 152 164 164 166 168 166 163 164 166 170 171 167 156 150 145 141 133 119
307 308 310 312 312 314 319 324 326 327 328 328 326 324 319 309 296 261 257 172 164 161 167 148 147 151 160 164 163 166 166 162 160 161 165 169 168 163 152 144 134 124 120 113
298 300 304 309 311 313 314 318 321 326 331 333 333 332 325 311 295 285 249 187 160 160 153 154 155 157 165 164 166 167 164 162 161 160 164 166 161 157 149 143 139 134 123 110
291 293 295 297 300 300 305 312 317 324 330 333 333 332 328 321 304 274 221 177 165 163 155 155 160 167 169 165 166 166 162 158 159 166 167 162 157 151 144 139 135 128 120 113
284 284 285 289 293 298 303 307 311 319 325 329 328 325 324 320 309 259 191 167 164 166 159 158 162 166 162 162 165 166 164 162 163 164 162 160 158 154 149 144 138 130 123 119
Height
1502 1498 1495 1492 1490 1487 1487 1486 1488 1483 1480 1476 1477 1476 1471 1467 1463 1460 1459 1459 1459 1459 1459 1459 1461 1464 1468 1471 1473 1475 1476 1478 1479 1480 1480 1481 1483 1484 1486 1487 1489 1491 1492 1494
1499 1494 1493 1490 1484 1482 1482 1482 1484 1483 1480 1480 1480 1475 1468 1462 1458 1457 1456 1456 1455 1456 1456 1457 1459 1461 1465 1468 1470 1472 1474 1475 1476 1476 1477 1478 1479 1481 1482 1483 1485 1487 1489 1491
1500 1492 1489 1488 1487 1485 1487 1490 1489 1491 1491 1484 1477 1472 1466 1461 1458 1455 1455 1454 1454 1454 1455 1456 1459 1461 1464 1466 1468 1469 1471 1471 1472 1473 1473 1475 1476 1477 1478 1480 1482 1484 1486 1488
1499 1496 1498 1496 1492 1491 1490 1493 1495 1494 1491 1487 1480 1471 1468 1464 1460 1457 1455 1455 1454 1455 1456 1458 1459 1461 1463 1465 1466 1467 1467 1468 1468 1468 1469 1471 1472 1473 1475 1477 1478 1480 1482 1484
1501 1497 1491 1496 1501 1502 1496 1495 1498 1495 1490 1484 1476 1464 1463 1464 1463 1460 1458 1457 1457 1458 1459 1460 1461 1462 1463 1464 1464 1464 1464 1464 1464 1464 1465 1466 1468 1469 1471 1473 1475 1476 1478 1480
1510 1508 1505 1518 1511 1500 1494 1496 1501 1498 1493 1488 1481 1471 1470 1469 1467 1465 1463 1462 1461 1462 1462 1462 1462 1463 1463 1463 1463 1462 1462 1461 1461 1461 1461 1462 1463 1464 1466 1468 1470 1472 1474 1476
1518 1518 1515 1527 1517 1502 1507 1515 1509 1503 1499 1494 1490 1488 1482 1474 1471 1469 1467 1466 1466 1465 1464 1464 1464 1464 1464 1463 1462 1462 1461 1460 1459 1458 1458 1458 1458 1459 1461 1462 1464 1466 1469 1471
1524 1525 1529 1527 1523 1522 1523 1517 1511 1506 1501 1496 1491 1484 1479 1475 1473 1471 1470 1469 1468 1468 1466 1466 1466 1466 1465 1464 1463 1462 1461 1459 1458 1457 1456 1455 1455 1456 1457 1458 1460 1462 1464 1467
1528 1530 1529 1527 1526 1524 1521 1516 1511 1506 1500 1495 1489 1484 1479 1475 1473 1472 1471 1470 1470 1470 1469 1468 1468 1468 1467 1465 1464 1463 1462 1460 1459 1457 1456 1454 1454 1454 1455 1456 1457 1459 1462 1464
1525 1523 1524 1524 1522 1521 1518 1513 1508 1504 1499 1494 1489 1483 1478 1475 1473 1472 1471 1470 1470 1471 1471 1471 1470 1468 1468 1466 1465 1464 1463 1461 1460 1458 1457 1455 1454 1454 1455 1455 1457 1458 1460 1462
1526 1523 1522 1520 1520 1516 1512 1508 1504 1499 1496 1492 1487 1482 1477 1474 1472 1471 1471 1470 1470 1471 1472 1472 1471 1469 1468 1466 1465 1465 1464 1463 1461 1460 1458 1457 1456 1456 1456 1457 1458 1459 1460 1462
1529 1526 1524 1519 1516 1512 1508 1503 1499 1495 1489 1487 1484 1480 1476 1472 1470 1470 1470 1470 1470 1471 1472 1472 1471 1470 1468 1466 1466 1466 1465 1464 1463 1462 1461 1460 1459 1459 1459 1459 1459 1460 1461 1462
1528 1524 1521 1516 1512 1509 1504 1499 1495 1491 1487 1483 1480 1477 1474 1471 1468 1468 1468 1469 1470 1471 1472 1472 1471 1470 1469 1467 1466 1466 1465 1464 1464 1463 1463 1462 1462 1462 1461 1461 1461 1461 1461 1461
1525 1521 1516 1513 1509 1504 1499 1494 1490 1486 1483 1481 1478 1475 1472 1469 1467 1466 1467 1468 1469 1470 1471 1471 1471 1470 1469 1468 1467 1467 1466 1465 1465 1464 1463 1463 1463 1462 1462 1462 1461 1461 1461 1461
1522 1519 1515 1509 1505 1500 1496 1491 1486 1482 1479 1476 1474 1472 1469 1466 1465 1464 1465 1466 1467 1469 1470 1470 1470 1470 1469 1468 1468 1467 1466 1466 1465 1465 1464 1464 1463 1463 1462 1462 1462 1461 1461 1461
1519 1515 1511 1506 1501 1496 1491 1487 1482 1478 1475 1472 1470 1469 1466 1464 1462 1461 1462 1463 1465 1467 1468 1469 1469 1469 1468 1468 1467 1467 1466 1466 1465 1466 1466 1465 1464 1464 1463 1463 1463 1463 1463 1462
1516 1511 1507 1502 1497 1492 1488 1484 1480 1476 1472 1469 1467 1465 1464 1462 1460 1459 1460 1461 1463 1465 1466 1467 1468 1467 1467 1467 1466 1467 1466 1466 1466 1466 1467 1466 1466 1465 1465 1464 1464 1464 1464 1464
1514 1510 1506 1501 1496 1490 1484 1480 1477 1472 1469 1465 1463 1462 1461 1460 1459 1458 1458 1459 1460 1462 1463 1465 1465 1465 1465 1465 1465 1465 1466 1466 1466 1467 1466 1466 1466 1466 1466 1466 1466 1466 1466 1466
1510 1507 1503 1498 1493 1488 1483 1478 1473 1469 1465 1462 1460 1459 1458 1457 1456 1455 1455 1456 1457 1459 1461 1462 1463 1463 1463 1463 1463 1464 1465 1465 1466 1466 1466 1466 1467 1467 1467 1467 1467 1467 1467 1467
1507 1504 1500 1495 1491 1486 1480 1475 1470 1466 1462 1458 1457 1456 1455 1455 1454 1453 1453 1453 1455 1457 1458 1459 1460 1461 1461 1461 1462 1463 1463 1464 1465 1466 1466 1467 1467 1468 1468 1468 1468 1469 1469 1469
1504 1500 1496 1492 1487 1483 1478 1473 1468 1463 1459 1455 1453 1452 1451 1451 1451 1450 1450 1451 1452 1454 1455 1457 1458 1458 1459 1459 1460 1461 1462 1464 1464 1465 1466 1467 1467 1468 1468 1469 1469 1470 1470 1470
1500 1497 1493 1489 1484 1480 1475 1471 1466 1461 1456 1452 1450 1448 1448 1447 1447 1447 1447 1448 1449 1451 1453 1454 1455 1456 1457 1458 1459 1460 1461 1463 1464 1465 1466 1467 1467 1468 1469 1469 1470 1470 1470 1470
1496 1493 1489 1485 1481 1477 1472 1468 1464 1458 1453 1449 1446 1444 1444 1443 1444 1444 1444 1445 1446 1448 1450 1452 1453 1454 1455 1457 1458 1459 1460 1462 1463 1464 1465 1466 1467 1468 1469 1469 1470 1470 1470 1470
1491 1488 1485 1482 1478 1474 1469 1465 1460 1456 1451 1447 1444 1441 1440 1440 1440 1440 1441 1441 1444 1446 1448 1450 1451 1453 1454 1455 1456 1458 1459 1461 1462 1463 1464 1466 1467 1468 1469 1469 1469 1469 1470 1469
1485 1483 1480 1477 1474 1470 1466 1461 1457 1453 1449 1444 1441 1438 1437 1436 1437 1437 1437 1439 1441 1444 1446 1448 1449 1451 1453 1454 1455 1457 1458 1459 1461 1462 1463 1465 1466 1467 1468 1468 1469 1469 1469 1469
1479 1477 1475 1473 1470 1466 1462 1458 1454 1451 1446 1442 1438 1436 1434 1433 1433 1434 1435 1437 1439 1442 1444 1446 1448 1450 1451 1453 1454 1456 1457 1458 1459 1461 1462 1464 1465 1466 1467 1467 1468 1468 1468 1468
1473 1471 1469 1467 1465 1463 1459 1456 1452 1449 1445 1440 1436 1433 1431 1431 1431 1431 1433 1435 1437 1440 1442 1444 1446 1448 1450 1451 1453 1455 1456 1457 1459 1460 1462 1463 1464 1465 1466 1466 1467 1467 1468 1468